Regional Weather Roundup
Issued by NWS

Home | Current Version | Previous Version | Graphics & Text | Print | Product List | Glossary On
Versions: 1 2 3 4 5 6 7 8 9 10 11 12 13 14 15 16 17 18 19 20 21 22 23 24 25 26 27 28 29 30 31 32 33 34 35 36 37 38 39 40 41 42 43 44 45 46 47 48 49 50
308
ASUS44 KMEG 230600
RWRTN
TENNESSEE HOURLY STATE WEATHER ROUNDUP
NATIONAL WEATHER SERVICE MEMPHIS TN
100 AM CDT TUE MAY 23 2017

TNZ002-004-019-021-049-052-054-088>092-230700-
WEST TENNESSEE

CITY           SKY/WX    TMP DP  RH WIND       PRES   REMARKS
MEMPHIS INTL   MOCLDY    65  59  81 CALM      29.90F
NWS MEMPHIS      N/A     65 N/A N/A MISG        N/A
JACKSON        CLOUDY    64  59  83 CALM      29.90F
DYERSBURG      CLOUDY    64  59  83 E3        29.91F
$$

TNZ008-025-027-028-033-062-065-066-230700-
NORTH MIDDLE TENNESSEE

CITY           SKY/WX    TMP DP  RH WIND       PRES   REMARKS
NASHVILLE      CLOUDY    64  54  69 N7        29.90F
CLARKSVILLE    CLOUDY    62  55  77 N5        29.91F
SMYRNA           N/A    N/A N/A N/A MISG        N/A
CROSSVILLE     CLOUDY    59  55  87 CALM      29.95F
$$

TNZ061-075-076-078-094-096-097-230700-
SOUTH MIDDLE TENNESSEE

CITY           SKY/WX    TMP DP  RH WIND       PRES   REMARKS
TULLAHOMA      CLOUDY    64  55  72 N3        29.90F
WINCHESTER     CLEAR     64  63  94 SE5       29.87F
$$

TNZ017-018-042-046-047-230700-
NORTHEAST TENNESSEE

CITY           SKY/WX    TMP DP  RH WIND       PRES   REMARKS
TRI CITIES     CLOUDY    63  58  83 CALM      29.94F
$$

TNZ012-013-036-069-073-074-230700-
CENTRAL EAST TENNESSEE

CITY           SKY/WX    TMP DP  RH WIND       PRES   REMARKS
KNOXVILLE      LGT RAIN  66  60  81 NW5       29.94S
OAK RIDGE      LGT RAIN  64  56  75 CALM      29.95F
GATLINBURG     CLOUDY    64  63  94 CALM      29.94S
$$

TNZ083-085-099-230700-
SOUTHEAST TENNESSEE

CITY           SKY/WX    TMP DP  RH WIND       PRES   REMARKS
CHATTANOOGA    LGT RAIN  66  64  93 E5        29.91F
$$

SKY/WX REPORTED AS FAIR MEANS FEW OR NO CLOUDS BELOW
12 THOUSAND FEET.





USA.gov is the U.S. government's official web portal to all federal, state and local government web resources and services.